EA3GKP-2 Platja d\\\'Aro Girona ES current weather conditions

sailwx.info

Wind from 112

Air temperature 20.0° C
Dewpoint 9.3° C

Last reported at 2020-Aug-15 03:57 UTC.
Time now 2020-Aug-15 05:12 UTC

Location: N 41°49' E 003°04'.
View on Google Maps.

See reports from other nearby stations

  
Tides and Currents Weather Stations Pressure Air Temp Water Temp Dewpoint Dewpoint Depression Visibility Wind Speed Wind Dir Waves Ship Positions
date/time (UTC)wind fromknots sea level pressurealtimeterstation pressurevisibilityair tempwater tempwave heightnotes
2020-Aug-15 03:57 112 20.0
2020-Aug-15 03:48 113 20.0
2020-Aug-15 03:29 112 20.0
2020-Aug-15 03:19 114 20.0
2020-Aug-15 03:11 115 20.0
2020-Aug-15 03:09 115 20.0
2020-Aug-15 03:00 113 20.0
2020-Aug-15 02:50 115 20.0
2020-Aug-15 02:41 112 20.0
2020-Aug-15 02:12 113 20.0
2020-Aug-15 02:02 113 20.0
2020-Aug-15 01:52 115 20.0
2020-Aug-15 01:43 114 20.0
2020-Aug-15 01:33 114 20.6
2020-Aug-15 01:23 114 20.6
2020-Aug-15 01:14 115 20.6
2020-Aug-15 00:55 115 20.6
2020-Aug-15 00:45 114 20.6
2020-Aug-15 00:35 113 20.6
2020-Aug-15 00:16 113 20.6
2020-Aug-15 00:06 114 20.6
2020-Aug-14 23:57 114 21.1
2020-Aug-14 23:37 113 21.1
2020-Aug-14 23:28 113 21.1
2020-Aug-14 23:18 114 21.1
2020-Aug-14 23:09 114 21.1
2020-Aug-14 22:59 114 21.1
2020-Aug-14 22:49 113 21.1
2020-Aug-14 22:40 114 21.7
2020-Aug-14 22:30 115 21.7
2020-Aug-14 22:20 113 21.7
2020-Aug-14 22:11 114 21.7
2020-Aug-14 21:32 115 22.8
2020-Aug-14 21:23 113 22.8
2020-Aug-14 21:14 115 22.8
2020-Aug-14 21:03 114 22.8
2020-Aug-14 20:54 115 22.8
2020-Aug-14 20:44 115 22.8
2020-Aug-14 20:35 113 22.8
2020-Aug-14 20:15 115 23.3
2020-Aug-14 20:06 114 23.3
2020-Aug-14 19:56 115 23.3
2020-Aug-14 19:37 115 23.9
2020-Aug-14 19:27 114 23.9
2020-Aug-14 19:17 115 23.9
2020-Aug-14 19:08 114 23.9
2020-Aug-14 18:58 113 23.9
2020-Aug-14 18:49 114 24.4
2020-Aug-14 18:39 115 24.4
2020-Aug-14 18:29 115 24.4
2020-Aug-14 18:10 114 24.4
2020-Aug-14 18:00 113 25.0
2020-Aug-14 17:51 115 25.0
2020-Aug-14 17:41 115 25.0
2020-Aug-14 17:32 115 25.6
2020-Aug-14 17:22 116 26.7
2020-Aug-14 17:03 116 26.1
2020-Aug-14 16:53 114 26.1
2020-Aug-14 16:34 117 27.2
2020-Aug-14 16:24 116 27.8
2020-Aug-14 16:15 116 27.8
2020-Aug-14 16:05 114 26.7
2020-Aug-14 15:46 115 27.2
2020-Aug-14 15:36 115 26.7
2020-Aug-14 15:26 115 26.1
2020-Aug-14 15:17 114 26.7
2020-Aug-14 15:07 116 26.7
2020-Aug-14 14:57 114 26.1
2020-Aug-14 14:48 114 26.1
2020-Aug-14 14:38 116 26.1
2020-Aug-14 14:29 114 26.1
2020-Aug-14 14:19 114 25.6
2020-Aug-14 14:09 113 26.1
2020-Aug-14 14:00 115 25.6
2020-Aug-14 13:50 114 25.6
2020-Aug-14 13:40 113 25.6
2020-Aug-14 13:31 116 26.1
2020-Aug-14 13:21 114 25.6
2020-Aug-14 13:12 115 26.1
2020-Aug-14 13:02 114 26.7
2020-Aug-14 12:52 113 25.6
2020-Aug-14 12:33 114 26.1
2020-Aug-14 12:14 115 25.6
2020-Aug-14 11:35 115 26.1
2020-Aug-14 11:26 114 26.1
2020-Aug-14 11:06 115 26.7
2020-Aug-14 10:57 114 26.7
2020-Aug-14 10:47 115 26.7
2020-Aug-14 10:38 114 26.1
2020-Aug-14 10:28 116 26.7
2020-Aug-14 10:18 114 25.6
2020-Aug-14 10:09 115 26.1
2020-Aug-14 09:59 115 25.6
2020-Aug-14 09:40 115 26.7
2020-Aug-14 09:30 115 26.1
2020-Aug-14 09:20 114 26.1
2020-Aug-14 09:11 115 26.7
2020-Aug-14 09:01 114 26.7
2020-Aug-14 08:52 115 27.2
2020-Aug-14 08:42 116 26.7
2020-Aug-14 08:32 114 27.2
2020-Aug-14 08:23 115 27.2
2020-Aug-14 08:13 113 26.7
2020-Aug-14 08:03 115 27.2
2020-Aug-14 07:35 112 27.2
2020-Aug-14 07:25 113 25.6
2020-Aug-14 07:15 112 25.0
2020-Aug-14 07:06 113 25.0
2020-Aug-14 06:56 113 24.4
2020-Aug-14 06:46 112 23.9
2020-Aug-14 06:37 114 22.8
2020-Aug-14 06:27 114 22.8
2020-Aug-14 06:18 112 22.8
2020-Aug-14 06:08 113 22.2
2020-Aug-14 05:58 113 22.2
2020-Aug-14 05:39 112 22.2
2020-Aug-14 05:29 112 21.7
2020-Aug-14 05:20 114 21.7
2020-Aug-14 05:10 115 21.1
2020-Aug-14 05:00 114 21.7
2020-Aug-14 04:51 112 21.7
2020-Aug-14 04:32 113 21.7
2020-Aug-14 04:22 113 21.7
2020-Aug-14 04:12 112 21.7
2020-Aug-14 04:03 114 21.7
2020-Aug-14 03:53 113 21.7
2020-Aug-14 03:43 112 21.7
2020-Aug-14 03:34 115 21.7
2020-Aug-14 03:24 115 22.2
2020-Aug-14 03:15 112 21.7
2020-Aug-14 03:05 114 21.7
2020-Aug-14 02:55 114 21.7
2020-Aug-14 02:36 114 22.8
2020-Aug-14 02:26 114 22.8
2020-Aug-14 02:17 112 22.8
2020-Aug-14 02:07 115 22.8
2020-Aug-14 01:58 113 22.8
2020-Aug-14 01:48 112 22.8
2020-Aug-14 01:38 114 22.8
2020-Aug-14 01:29 113 22.8
2020-Aug-14 01:19 114 22.8
2020-Aug-14 01:09 114 22.8
2020-Aug-14 00:40 113 22.8
2020-Aug-14 00:21 114 22.8
2020-Aug-14 00:12 114 23.3
2020-Aug-14 00:02 112 23.3
2020-Aug-13 23:04 111 23.3
2020-Aug-13 22:55 112 23.3
2020-Aug-13 22:35 111 22.8
2020-Aug-13 22:26 113 22.8
2020-Aug-13 22:16 112 22.8
2020-Aug-13 22:06 112 23.3
2020-Aug-13 21:57 112 23.3
2020-Aug-13 21:47 112 23.3
2020-Aug-13 21:37 112 23.3
2020-Aug-13 21:28 111 23.9
2020-Aug-13 21:18 111 23.9
2020-Aug-13 21:09 111 23.9
2020-Aug-13 20:59 110 23.9
2020-Aug-13 20:49 112 23.9
2020-Aug-13 20:40 111 23.9
2020-Aug-13 20:30 110 24.4
2020-Aug-13 20:01 111 24.4
2020-Aug-13 19:42 111 24.4
2020-Aug-13 19:32 110 23.9
2020-Aug-13 19:13 112 23.9
2020-Aug-13 19:03 111 23.9
2020-Aug-13 18:44 111 24.4
2020-Aug-13 18:35 110 24.4
2020-Aug-13 18:25 111 24.4
2020-Aug-13 18:15 111 24.4
2020-Aug-13 18:06 111 25.0
2020-Aug-13 17:56 112 25.6
2020-Aug-13 17:38 111 25.6
2020-Aug-13 17:18 112 25.6
2020-Aug-13 16:49 112 26.7
2020-Aug-13 16:39 112 26.7
2020-Aug-13 16:29 110 26.7
2020-Aug-13 16:20 112 26.7
2020-Aug-13 16:10 112 26.1
2020-Aug-13 16:01 112 26.7
2020-Aug-13 15:51 110 26.7
2020-Aug-13 15:42 111 26.7
2020-Aug-13 15:32 112 26.7
2020-Aug-13 15:12 112 26.7
2020-Aug-13 14:43 112 26.1
2020-Aug-13 14:34 112 25.6
2020-Aug-13 14:24 111 26.1
2020-Aug-13 14:15 112 26.7
2020-Aug-13 14:05 114 27.8
2020-Aug-13 13:46 112 27.2
2020-Aug-13 13:36 113 27.8
2020-Aug-13 13:18 114 27.2
2020-Aug-13 13:07 111 27.8
2020-Aug-13 12:58 112 27.8
2020-Aug-13 12:48 112 27.8
2020-Aug-13 12:38 112 26.7
2020-Aug-13 12:29 112 27.2
2020-Aug-13 12:19 113 27.2
2020-Aug-13 12:09 111 27.8
2020-Aug-13 11:50 111 27.2
2020-Aug-13 11:21 113 27.2
2020-Aug-13 11:02 112 27.2
2020-Aug-13 10:52 114 27.2
2020-Aug-13 10:43 112 26.7
2020-Aug-13 10:33 111 26.7
2020-Aug-13 10:23 111 26.7
2020-Aug-13 10:14 111 26.7
2020-Aug-13 09:55 112 25.6
2020-Aug-13 09:45 113 25.6
2020-Aug-13 09:35 113 25.6
2020-Aug-13 09:26 112 25.6
2020-Aug-13 08:58 113 25.6
2020-Aug-13 08:47 112 26.7
2020-Aug-13 08:38 112 26.7
2020-Aug-13 08:28 111 26.1
2020-Aug-13 08:18 112 26.1
2020-Aug-13 07:49 111 25.6
2020-Aug-13 07:20 111 26.7
2020-Aug-13 07:11 112 26.7
2020-Aug-13 07:01 113 26.1
2020-Aug-13 06:52 111 25.0
2020-Aug-13 06:42 111 23.9
2020-Aug-13 06:33 111 23.3
2020-Aug-13 06:23 112 22.8
2020-Aug-13 06:13 111 22.8
2020-Aug-13 06:03 112 22.8
2020-Aug-13 05:54 113 22.8
2020-Aug-13 05:44 111 22.8
2020-Aug-13 05:35 113 22.8
2020-Aug-13 05:15 113 22.2
2020-Aug-13 05:06 113 22.2